Weather History for Waupaca, WI

Change the Weather History Date:

Saturday, February 23, 2013

  Actual Average Record
Temperature  
Mean Temperature 28 °F -  
Max Temperature 32 °F 36 °F 60 °F (1984)
Min Temperature 24 °F 17 °F -9 °F (1967)
Degree Days  
Heating Degree Days 37    
Moisture  
Dew Point 22 °F    
Average Humidity 74    
Maximum Humidity 86    
Minimum Humidity 60    
Precipitation  
Precipitation 0.00 in - - ()
Sea Level Pressure  
Sea Level Pressure 29.82 in    
Wind  
Wind Speed 8 mph (West)    
Max Wind Speed 14 mph    
Max Gust Speed 16 mph    
Visibility 9 miles    
Events Snow    
Averages and records for this station are not official NWS values.
T = Trace of Precipitation, MM = Missing Value Source: NWS Daily Summary

Daily Weather History Graph

Daily Weather History Graph

Search for Another Location

Airport:

Trip Planner

Search our weather history database for the weather conditions in past years. The results will help you decide how hot, cold, wet, or windy it might be!

Date:

Astronomy

Feb. 23, 2013 Rise Set
Actual Time 6:42 AM CST 5:36 PM CST
Civil Twilight 6:13 AM CST 6:05 PM CST
Nautical Twilight 5:39 AM CST 6:39 PM CST
Astronomical Twilight 5:06 AM CST 7:13 PM CST
Moon 3:44 PM CST (2/23) 5:08 AM CST (2/23)
Length of Visible Light 11h 52m
Length of Day
10h 53m
Waxing Gibbous, 95% of the Moon is Illuminated
Feb 23
Waxing Gibbous
Feb 25
Full
Mar 4
Last Quarter
Mar 11
New
Mar 19
First Quarter

Hourly Weather History & Observations

Time (CST) Temp. Windchill Dew Point Humidity Pressure Visibility Wind Dir Wind Speed Gust Speed Precip Events Conditions
12:15 AM 28.4 °F 21.2 °F 24.8 °F 86% 29.78 in 10.0 mi West 6.9 mph - N/A   Overcast
12:35 AM 28.4 °F 22.2 °F 24.8 °F 86% 29.78 in 10.0 mi WSW 5.8 mph - N/A Snow Light Snow
12:55 AM 26.6 °F 20.0 °F 23.0 °F 86% 29.78 in 7.0 mi WSW 5.8 mph - N/A Snow Light Snow
1:15 AM 26.6 °F 20.0 °F 23.0 °F 86% 29.78 in 10.0 mi WSW 5.8 mph - N/A   Overcast
1:35 AM 28.4 °F 20.4 °F 23.0 °F 80% 29.78 in 10.0 mi WSW 8.1 mph - N/A   Overcast
1:55 AM 28.4 °F 20.4 °F 24.8 °F 86% 29.78 in 10.0 mi WSW 8.1 mph - N/A   Overcast
2:15 AM 28.4 °F 21.2 °F 23.0 °F 80% 29.78 in 10.0 mi WSW 6.9 mph - N/A   Overcast
2:35 AM 28.4 °F 19.7 °F 23.0 °F 80% 29.78 in 10.0 mi WSW 9.2 mph - N/A   Overcast
2:55 AM 28.4 °F 21.2 °F 23.0 °F 80% 29.78 in 10.0 mi WSW 6.9 mph - N/A   Overcast
3:15 AM 28.4 °F 19.7 °F 23.0 °F 80% 29.77 in 10.0 mi WSW 9.2 mph - N/A Snow Light Snow
3:35 AM 28.4 °F 19.7 °F 23.0 °F 80% 29.77 in 7.0 mi WSW 9.2 mph - N/A Snow Light Snow
3:55 AM 28.4 °F 20.4 °F 23.0 °F 80% 29.77 in 7.0 mi WSW 8.1 mph - N/A Snow Light Snow
4:15 AM 28.4 °F 21.2 °F 23.0 °F 80% 29.78 in 10.0 mi WSW 6.9 mph - N/A Snow Light Snow
4:35 AM 28.4 °F 19.7 °F 23.0 °F 80% 29.78 in 10.0 mi WSW 9.2 mph - N/A   Overcast
4:55 AM 28.4 °F 20.4 °F 23.0 °F 80% 29.78 in 5.0 mi West 8.1 mph - N/A Snow Light Snow
5:15 AM 28.4 °F 20.4 °F 23.0 °F 80% 29.78 in 7.0 mi WSW 8.1 mph - N/A Snow Light Snow
5:35 AM 28.4 °F 21.2 °F 23.0 °F 80% 29.78 in 10.0 mi WSW 6.9 mph - N/A   Overcast
5:55 AM 26.6 °F 18.2 °F 23.0 °F 86% 29.78 in 10.0 mi WSW 8.1 mph - N/A   Overcast
6:15 AM 26.6 °F 18.2 °F 23.0 °F 86% 29.79 in 7.0 mi West 8.1 mph - N/A Snow Light Snow
6:35 AM 26.6 °F 18.2 °F 23.0 °F 86% 29.79 in 7.0 mi WSW 8.1 mph - N/A Snow Light Snow
6:55 AM 26.6 °F 18.2 °F 23.0 °F 86% 29.80 in 5.0 mi West 8.1 mph - N/A Snow Light Snow
7:15 AM 26.6 °F 18.2 °F 23.0 °F 86% 29.80 in 5.0 mi WSW 8.1 mph - N/A Snow Light Snow
7:35 AM 28.4 °F 20.4 °F 23.0 °F 80% 29.81 in 5.0 mi WSW 8.1 mph - N/A Snow Light Snow
7:55 AM 28.4 °F 20.4 °F 23.0 °F 80% 29.80 in 5.0 mi WSW 8.1 mph - N/A Snow Light Snow
8:15 AM 28.4 °F 20.4 °F 23.0 °F 80% 29.81 in 3.0 mi WSW 8.1 mph - N/A Snow Light Snow
8:55 AM 28.4 °F 18.5 °F 23.0 °F 80% 29.81 in 4.0 mi West 11.5 mph - N/A Snow Light Snow
9:15 AM 28.4 °F 19.1 °F 23.0 °F 80% 29.81 in 5.0 mi WSW 10.4 mph - N/A Snow Light Snow
9:35 AM 30.2 °F 20.8 °F 23.0 °F 75% 29.81 in 5.0 mi West 11.5 mph - N/A Snow Light Snow
9:55 AM 30.2 °F 22.6 °F 23.0 °F 75% 29.81 in 7.0 mi West 8.1 mph - N/A Snow Light Snow
10:15 AM 30.2 °F 21.3 °F 23.0 °F 75% 29.81 in 7.0 mi West 10.4 mph - N/A   Overcast
10:35 AM 30.2 °F 21.3 °F 21.2 °F 69% 29.81 in 10.0 mi West 10.4 mph - N/A   Overcast
10:55 AM 30.2 °F 20.2 °F 21.2 °F 69% 29.81 in 10.0 mi West 12.7 mph - N/A   Overcast
11:15 AM 32.0 °F 24.8 °F 21.2 °F 64% 29.81 in 10.0 mi West 8.1 mph - N/A   Mostly Cloudy
11:35 AM 32.0 °F 22.1 °F 21.2 °F 64% 29.81 in 10.0 mi West 13.8 mph - N/A   Mostly Cloudy
11:55 AM 32.0 °F 22.5 °F 21.2 °F 64% 29.81 in 10.0 mi West 12.7 mph 16.1 mph N/A   Mostly Cloudy
12:15 PM 32.0 °F 24.2 °F 21.2 °F 64% 29.81 in 10.0 mi West 9.2 mph - N/A   Overcast
12:35 PM 32.0 °F 22.5 °F 21.2 °F 64% 29.81 in 10.0 mi West 12.7 mph - N/A   Overcast
12:55 PM 30.2 °F 21.9 °F 21.2 °F 69% 29.81 in 10.0 mi West 9.2 mph - N/A   Overcast
1:15 PM 30.2 °F 22.6 °F 21.2 °F 69% 29.81 in 10.0 mi West 8.1 mph - N/A   Mostly Cloudy
1:35 PM 32.0 °F 24.2 °F 21.2 °F 64% 29.80 in 10.0 mi West 9.2 mph 12.7 mph N/A   Mostly Cloudy
1:55 PM 32.0 °F 22.5 °F 19.4 °F 60% 29.80 in 10.0 mi West 12.7 mph - N/A   Scattered Clouds
2:15 PM 32.0 °F 23.0 °F 21.2 °F 64% 29.81 in 10.0 mi West 11.5 mph - N/A   Mostly Cloudy
2:35 PM 32.0 °F 23.0 °F 19.4 °F 60% 29.81 in 10.0 mi West 11.5 mph - N/A   Overcast
2:55 PM 32.0 °F 24.2 °F 21.2 °F 64% 29.81 in 10.0 mi West 9.2 mph - N/A   Overcast
3:15 PM 32.0 °F 24.2 °F 19.4 °F 60% 29.81 in 10.0 mi West 9.2 mph - N/A   Mostly Cloudy
3:35 PM 32.0 °F 24.8 °F 19.4 °F 60% 29.81 in 10.0 mi West 8.1 mph - N/A   Overcast
3:55 PM 32.0 °F 24.8 °F 19.4 °F 60% 29.81 in 10.0 mi West 8.1 mph - N/A   Overcast
4:15 PM 32.0 °F 25.6 °F 19.4 °F 60% 29.81 in 10.0 mi WNW 6.9 mph - N/A   Overcast
4:35 PM 32.0 °F 25.6 °F 19.4 °F 60% 29.81 in 10.0 mi WNW 6.9 mph - N/A   Overcast
4:55 PM 32.0 °F 26.4 °F 21.2 °F 64% 29.82 in 10.0 mi West 5.8 mph - N/A   Overcast
5:15 PM 32.0 °F 24.2 °F 19.4 °F 60% 29.83 in 10.0 mi West 9.2 mph - N/A   Overcast
5:35 PM 30.2 °F 22.6 °F 19.4 °F 64% 29.83 in 10.0 mi West 8.1 mph - N/A   Mostly Cloudy
5:55 PM 28.4 °F 22.2 °F 19.4 °F 69% 29.84 in 10.0 mi West 5.8 mph - N/A   Scattered Clouds
6:15 PM 28.4 °F 22.2 °F 19.4 °F 69% 29.84 in 10.0 mi West 5.8 mph - N/A   Scattered Clouds
6:35 PM 26.6 °F 22.6 °F 17.6 °F 69% 29.85 in 10.0 mi WSW 3.5 mph - N/A   Clear
6:55 PM 26.6 °F 22.6 °F 19.4 °F 74% 29.85 in 10.0 mi WSW 3.5 mph - N/A   Clear
7:15 PM 24.8 °F 19.1 °F 19.4 °F 80% 29.86 in 10.0 mi WSW 4.6 mph - N/A   Mostly Cloudy
7:35 PM 26.6 °F 21.2 °F 19.4 °F 74% 29.86 in 10.0 mi WSW 4.6 mph - N/A   Overcast
7:55 PM 26.6 °F 21.2 °F 19.4 °F 74% 29.86 in 10.0 mi WSW 4.6 mph - N/A   Overcast
8:15 PM 26.6 °F 22.6 °F 19.4 °F 74% 29.86 in 10.0 mi WSW 3.5 mph - N/A   Overcast
8:35 PM 26.6 °F 22.6 °F 21.2 °F 80% 29.87 in 10.0 mi WSW 3.5 mph - N/A   Overcast
8:55 PM 26.6 °F 21.2 °F 21.2 °F 80% 29.87 in 10.0 mi West 4.6 mph - N/A   Overcast
9:15 PM 28.4 °F 20.4 °F 21.2 °F 74% 29.87 in 10.0 mi WSW 8.1 mph - N/A   Overcast
9:35 PM 28.4 °F 19.7 °F 23.0 °F 80% 29.88 in 10.0 mi West 9.2 mph - N/A   Overcast
9:55 PM 28.4 °F 20.4 °F 23.0 °F 80% 29.88 in 10.0 mi West 8.1 mph - N/A   Overcast
10:15 PM 28.4 °F 20.4 °F 23.0 °F 80% 29.87 in 10.0 mi West 8.1 mph - N/A Snow Light Snow
10:35 PM 28.4 °F 21.2 °F 23.0 °F 80% 29.88 in 10.0 mi West 6.9 mph - N/A   Overcast
10:55 PM 28.4 °F 21.2 °F 23.0 °F 80% 29.88 in 10.0 mi West 6.9 mph - N/A   Overcast
11:15 PM 28.4 °F 21.2 °F 23.0 °F 80% 29.88 in 10.0 mi West 6.9 mph - N/A   Overcast
11:35 PM 30.2 °F 21.3 °F 23.0 °F 75% 29.88 in 10.0 mi West 10.4 mph - N/A   Overcast
11:55 PM 30.2 °F 22.6 °F 23.0 °F 75% 29.89 in 10.0 mi West 8.1 mph - N/A   Overcast